Temp
-7 -7 -7 -7 -7 -7 -7 -7 -7 -7 -7 -7 -7 -7 -7 -7 -7 -7 -7 -8 -8 -8 -8 -8 -9 -9 -9 -9 -9 -8 -8 -8 -9 -9 -8 -8 -9 -8 -8 -8 -9 -9 -8
-7 -7 -7 -7 -7 -7 -7 -7 -7 -7 -7 -7 -7 -7 -7 -7 -7 -7 -7 -7 -7 -8 -8 -9 -9 -9 -9 -9 -9 -9 -9 -9 -9 -9 -9 -9 -9 -8 -8 -8 -9 -8 -8
-7 -7 -7 -7 -7 -7 -7 -7 -7 -7 -7 -7 -7 -7 -7 -7 -7 -7 -7 -7 -7 -7 -8 -8 -9 -9 -9 -9 -9 -10 -9 -9 -9 -9 -9 -9 -9 -8 -8 -8 -9 -8 -8
-7 -7 -7 -7 -7 -7 -7 -7 -7 -7 -7 -7 -7 -7 -7 -8 -8 -8 -8 -8 -8 -7 -8 -8 -8 -9 -9 -9 -9 -9 -10 -9 -9 -9 -9 -9 -9 -9 -8 -8 -9 -9 -9
-7 -7 -7 -7 -7 -7 -7 -7 -7 -7 -7 -7 -7 -7 -8 -8 -8 -8 -8 -8 -8 -8 -8 -8 -8 -8 -9 -9 -9 -10 -10 -9 -9 -9 -9 -9 -9 -9 -9 -9 -9 -9 -9
-7 -7 -7 -7 -7 -7 -7 -7 -7 -7 -7 -8 -8 -8 -8 -8 -8 -8 -8 -8 -8 -8 -8 -8 -8 -8 -8 -9 -9 -9 -9 -9 -9 -10 -9 -9 -9 -9 -9 -9 -9 -9 -9
-7 -7 -7 -7 -7 -7 -7 -7 -7 -7 -8 -8 -8 -8 -8 -8 -8 -8 -8 -8 -8 -8 -8 -9 -8 -8 -9 -9 -9 -9 -9 -9 -10 -9 -9 -9 -9 -9 -9 -9 -9 -9 -9
-7 -7 -7 -7 -7 -7 -7 -7 -7 -7 -8 -8 -8 -8 -8 -8 -8 -8 -8 -8 -8 -8 -8 -8 -9 -9 -9 -9 -9 -9 -9 -9 -9 -9 -10 -9 -9 -9 -9 -9 -9 -9 -9
-7 -7 -7 -7 -7 -7 -7 -7 -7 -7 -8 -8 -8 -8 -8 -8 -8 -9 -8 -8 -8 -8 -8 -9 -9 -9 -9 -9 -9 -9 -9 -9 -9 -9 -9 -10 -9 -9 -9 -9 -9 -9 -9
-7 -7 -7 -7 -7 -7 -7 -7 -7 -7 -8 -8 -8 -8 -8 -8 -8 -9 -9 -8 -8 -9 -8 -8 -9 -8 -9 -9 -9 -9 -9 -9 -10 -9 -9 -9 -9 -9 -9 -9 -9 -9 -9
-8 -7 -7 -8 -8 -8 -7 -7 -7 -7 -7 -8 -8 -8 -8 -8 -9 -9 -9 -8 -8 -8 -8 -8 -8 -8 -9 -9 -9 -9 -9 -9 -9 -9 -10 -9 -9 -9 -9 -9 -9 -9 -9
-7 -8 -7 -8 -8 -8 -8 -8 -7 -7 -7 -8 -8 -8 -8 -8 -8 -9 -8 -8 -8 -8 -8 -8 -8 -9 -9 -9 -9 -9 -10 -10 -10 -10 -10 -10 -10 -9 -9 -9 -9 -9 -9
-8 -8 -8 -8 -8 -8 -8 -8 -8 -8 -8 -8 -8 -8 -8 -8 -8 -9 -8 -8 -7 -7 -7 -7 -7 -8 -8 -8 -9 -9 -10 -10 -10 -10 -10 -10 -10 -10 -9 -9 -9 -9 -9
-9 -9 -9 -9 -9 -8 -9 -9 -8 -8 -8 -8 -8 -8 -8 -8 -8 -8 -8 -8 -8 -7 -7 -7 -7 -7 -7 -7 -8 -9 -10 -10 -10 -10 -10 -10 -10 -10 -10 -9 -9 -9 -9
-9 -9 -9 -9 -9 -9 -8 -8 -8 -8 -8 -9 -8 -8 -8 -9 -9 -8 -8 -9 -8 -8 -7 -7 -8 -7 -7 -6 -7 -7 -9 -10 -11 -10 -11 -10 -10 -10 -10 -10 -9 -9 -9
-9 -10 -9 -10 -9 -9 -9 -9 -9 -9 -9 -9 -9 -9 -9 -9 -9 -8 -8 -9 -8 -8 -8 -8 -8 -8 -8 -7 -8 -9 -9 -10 -11 -11 -10 -11 -10 -10 -10 -10 -9 -9 -9
-9 -8 -10 -10 -10 -10 -10 -9 -9 -9 -10 -9 -9 -9 -9 -9 -9 -8 -9 -8 -8 -8 -8 -9 -9 -9 -9 -9 -9 -9 -10 -11 -12 -12 -12 -11 -11 -11 -10 -10 -10 -9 -9
-10 -10 -10 -9 -9 -10 -10 -10 -10 -10 -10 -10 -10 -10 -9 -10 -9 -9 -9 -9 -9 -8 -8 -8 -9 -8 -8 -9 -10 -10 -11 -12 -12 -12 -12 -12 -12 -11 -11 -10 -10 -10 -9
-9 -10 -10 -9 -10 -10 -9 -10 -10 -11 -10 -10 -10 -10 -10 -10 -10 -9 -9 -9 -8 -8 -9 -9 -8 -9 -9 -10 -10 -11 -12 -12 -12 -12 -13 -12 -12 -12 -12 -11 -11 -10 -10
-9 -9 -10 -9 -9 -8 -7 -9 -10 -10 -10 -11 -11 -11 -11 -10 -10 -10 -10 -9 -9 -10 -10 -9 -9 -9 -10 -11 -11 -12 -12 -12 -13 -13 -13 -14 -13 -13 -13 -12 -12 -11 -10
-10 -10 -9 -9 -9 -9 -8 -8 -10 -10 -12 -11 -11 -10 -10 -11 -11 -10 -10 -10 -10 -10 -10 -9 -9 -10 -10 -11 -12 -13 -13 -12 -13 -14 -14 -14 -14 -14 -14 -13 -13 -12 -11
-9 -10 -10 -9 -8 -9 -9 -10 -9 -10 -11 -11 -11 -11 -12 -12 -12 -11 -11 -11 -11 -10 -10 -10 -10 -10 -12 -13 -13 -13 -13 -13 -13 -14 -14 -14 -15 -14 -15 -14 -14 -12 -11
-9 -9 -9 -9 -9 -10 -10 -10 -9 -10 -10 -11 -11 -12 -12 -11 -11 -12 -12 -12 -12 -11 -11 -11 -11 -11 -13 -13 -14 -14 -14 -14 -14 -14 -14 -14 -15 -14 -14 -14 -13 -11 -11
-10 -10 -10 -10 -9 -9 -9 -10 -10 -11 -10 -11 -12 -11 -11 -12 -12 -12 -12 -13 -12 -12 -12 -12 -12 -12 -13 -13 -14 -14 -14 -14 -14 -15 -15 -14 -14 -14 -14 -13 -12 -11 -10
-10 -10 -10 -10 -9 -9 -10 -10 -10 -10 -10 -10 -10 -10 -10 -11 -12 -12 -13 -12 -13 -13 -13 -13 -13 -13 -13 -14 -14 -14 -15 -14 -15 -15 -15 -14 -14 -15 -14 -13 -12 -11 -10
-10 -10 -10 -10 -10 -9 -10 -10 -11 -11 -11 -11 -11 -11 -11 -12 -12 -12 -12 -12 -13 -13 -13 -14 -14 -14 -14 -14 -15 -14 -14 -14 -14 -15 -15 -14 -15 -15 -13 -13 -12 -11 -10
Height
5925 5924 5923 5923 5922 5921 5920 5919 5918 5917 5916 5915 5914 5912 5911 5910 5908 5906 5904 5903 5903 5902 5902 5902 5903 5904 5904 5904 5904 5904 5905 5904 5905 5905 5905 5906 5906 5906 5907 5908 5908 5909 5909
5925 5925 5925 5924 5924 5923 5922 5920 5919 5918 5916 5915 5914 5912 5911 5910 5908 5907 5905 5903 5901 5900 5899 5899 5898 5899 5899 5899 5900 5900 5901 5902 5903 5903 5904 5905 5905 5906 5907 5907 5908 5908 5909
5926 5925 5925 5924 5923 5922 5921 5921 5919 5918 5917 5915 5913 5912 5910 5908 5906 5905 5903 5902 5901 5899 5898 5897 5896 5895 5895 5894 5894 5896 5897 5899 5901 5901 5901 5902 5903 5904 5905 5906 5907 5907 5908
5926 5925 5924 5923 5922 5922 5920 5919 5918 5917 5916 5914 5912 5911 5909 5907 5906 5904 5901 5899 5898 5897 5896 5895 5894 5893 5892 5891 5891 5892 5894 5895 5897 5899 5899 5900 5901 5902 5903 5904 5905 5906 5907
5924 5924 5923 5923 5922 5921 5919 5917 5917 5916 5915 5914 5912 5910 5907 5906 5904 5901 5901 5899 5897 5896 5893 5891 5890 5889 5888 5888 5888 5888 5890 5892 5893 5894 5895 5897 5898 5899 5900 5902 5903 5905 5906
5924 5923 5922 5922 5921 5919 5917 5917 5916 5915 5913 5912 5910 5907 5906 5903 5901 5900 5899 5896 5893 5893 5893 5892 5890 5888 5886 5884 5885 5884 5886 5887 5888 5889 5891 5892 5894 5895 5897 5899 5900 5902 5903
5923 5922 5922 5921 5919 5917 5916 5915 5914 5912 5910 5909 5908 5906 5904 5901 5898 5898 5895 5893 5891 5891 5888 5887 5885 5884 5884 5884 5883 5881 5881 5881 5883 5884 5886 5888 5890 5891 5893 5895 5897 5898 5900
5922 5921 5920 5918 5917 5915 5913 5912 5911 5909 5907 5906 5904 5903 5901 5899 5897 5895 5893 5891 5889 5887 5885 5883 5882 5881 5879 5878 5878 5878 5878 5878 5878 5879 5880 5882 5884 5886 5887 5889 5891 5894 5896
5918 5917 5916 5914 5913 5912 5911 5909 5908 5906 5904 5903 5901 5900 5898 5896 5894 5892 5889 5888 5885 5883 5881 5880 5879 5877 5876 5875 5875 5874 5872 5872 5873 5873 5874 5876 5877 5880 5882 5883 5886 5888 5891
5913 5912 5911 5910 5909 5908 5907 5906 5905 5904 5902 5899 5897 5895 5894 5893 5890 5888 5886 5884 5881 5879 5878 5874 5873 5872 5871 5869 5868 5867 5867 5866 5866 5866 5867 5868 5870 5871 5874 5877 5879 5881 5884
5910 5908 5907 5906 5904 5903 5902 5902 5900 5899 5897 5895 5892 5891 5888 5886 5884 5882 5879 5878 5877 5876 5874 5873 5869 5867 5865 5863 5862 5862 5861 5860 5859 5858 5859 5860 5861 5862 5864 5868 5871 5874 5877
5904 5903 5902 5901 5899 5898 5896 5895 5894 5893 5891 5889 5887 5885 5884 5883 5881 5877 5874 5872 5869 5870 5869 5866 5864 5862 5859 5857 5856 5854 5853 5851 5851 5851 5850 5850 5852 5853 5855 5858 5862 5864 5868
5899 5897 5896 5894 5893 5890 5888 5887 5886 5886 5884 5882 5881 5879 5879 5877 5875 5874 5871 5868 5865 5862 5860 5858 5857 5855 5853 5848 5846 5845 5844 5843 5843 5842 5841 5842 5842 5843 5845 5847 5850 5853 5857
5894 5892 5889 5887 5885 5884 5883 5883 5882 5880 5878 5875 5874 5873 5871 5871 5869 5867 5864 5863 5861 5858 5854 5851 5848 5844 5841 5839 5837 5835 5833 5833 5832 5832 5832 5831 5831 5832 5833 5835 5838 5841 5845
5888 5886 5884 5880 5878 5877 5878 5876 5875 5874 5873 5870 5869 5868 5865 5863 5862 5860 5857 5857 5855 5853 5850 5847 5841 5839 5836 5833 5827 5824 5823 5822 5820 5821 5820 5819 5819 5820 5822 5823 5825 5828 5833
5884 5882 5878 5876 5875 5870 5869 5868 5868 5867 5866 5864 5862 5860 5858 5854 5852 5852 5850 5847 5845 5843 5841 5836 5833 5830 5827 5825 5820 5814 5811 5808 5808 5807 5808 5807 5807 5807 5808 5810 5813 5814 5818
5880 5875 5872 5868 5865 5865 5863 5860 5859 5858 5856 5854 5853 5852 5851 5848 5845 5842 5840 5837 5835 5833 5831 5828 5824 5819 5816 5812 5807 5803 5797 5794 5793 5792 5790 5790 5792 5792 5793 5795 5798 5801 5803
5871 5869 5864 5862 5859 5855 5853 5852 5849 5849 5848 5847 5846 5844 5843 5840 5839 5835 5832 5829 5824 5821 5820 5817 5812 5808 5805 5799 5795 5788 5782 5780 5779 5778 5775 5774 5775 5775 5777 5780 5782 5785 5789
5867 5863 5858 5848 5846 5849 5847 5842 5839 5839 5838 5836 5834 5834 5832 5830 5828 5826 5822 5819 5817 5813 5811 5807 5803 5799 5791 5786 5781 5775 5772 5767 5765 5763 5762 5760 5759 5759 5760 5762 5765 5768 5772
5860 5857 5853 5846 5843 5843 5838 5831 5829 5828 5827 5825 5824 5822 5821 5820 5818 5817 5813 5810 5807 5804 5801 5795 5791 5788 5779 5772 5766 5763 5759 5755 5750 5747 5744 5742 5742 5742 5743 5746 5748 5749 5754
5853 5850 5847 5843 5838 5833 5827 5821 5819 5818 5817 5816 5815 5813 5812 5809 5808 5806 5804 5801 5797 5794 5788 5784 5780 5774 5765 5757 5752 5749 5746 5743 5738 5732 5730 5727 5726 5728 5728 5728 5729 5731 5735
5846 5844 5840 5837 5830 5826 5820 5816 5811 5809 5806 5805 5803 5801 5799 5799 5798 5795 5794 5791 5788 5784 5778 5772 5767 5761 5753 5745 5739 5736 5732 5728 5726 5721 5718 5716 5713 5715 5714 5711 5710 5712 5718
5837 5836 5832 5827 5822 5818 5811 5807 5804 5799 5799 5797 5794 5791 5789 5787 5785 5784 5781 5778 5775 5769 5764 5760 5756 5747 5739 5733 5728 5725 5721 5716 5713 5710 5706 5705 5701 5703 5698 5695 5693 5695 5701
5829 5825 5821 5816 5812 5807 5803 5799 5796 5791 5788 5786 5783 5780 5781 5777 5777 5774 5770 5766 5763 5757 5752 5747 5741 5735 5728 5722 5716 5714 5709 5706 5703 5699 5695 5692 5688 5686 5680 5673 5672 5675 5682
5817 5815 5812 5808 5804 5799 5795 5792 5787 5784 5781 5776 5773 5772 5772 5769 5766 5760 5757 5754 5750 5744 5738 5734 5726 5721 5716 5710 5705 5703 5698 5693 5691 5689 5684 5679 5676 5664 5657 5655 5652 5655 5663
5808 5806 5802 5797 5794 5788 5786 5782 5778 5774 5773 5769 5768 5764 5760 5757 5754 5750 5746 5742 5738 5731 5725 5718 5714 5711 5706 5700 5693 5690 5685 5680 5678 5676 5671 5666 5661 5646 5642 5639 5637 5637 5643
Wind_Speed
10 10 10 12 12 12 13 13 12 12 11 11 13 13 13 12 11 9 8 7 6 8 10 13 13 16 20 18 19 14 13 13 11 10 7 6 5 7 8 7 5 4 4
7 8 7 8 8 9 10 11 11 11 11 12 11 11 11 12 11 11 11 10 8 9 10 12 14 16 18 21 24 19 16 14 13 12 11 9 8 7 9 9 8 6 5
4 5 6 6 7 8 9 9 9 10 9 10 11 11 12 11 9 9 9 9 10 9 10 12 15 18 18 19 18 25 19 17 16 15 13 13 11 11 10 10 11 10 7
3 5 5 6 7 7 7 9 11 13 13 11 11 12 12 11 11 10 9 9 8 9 10 10 13 15 18 19 19 16 25 22 19 17 15 14 14 13 12 10 11 11 10
3 4 6 7 9 9 8 8 12 13 14 13 13 12 12 12 12 11 12 13 12 10 8 9 10 13 15 19 20 21 17 26 23 20 19 17 16 16 15 13 12 12 11
6 6 6 8 9 11 11 11 13 14 14 13 13 13 13 13 13 12 11 13 14 13 12 11 14 13 12 14 18 21 23 23 26 25 23 22 20 19 18 16 15 14 13
10 11 10 12 13 13 12 12 13 12 12 12 12 14 13 13 12 12 12 13 14 14 14 13 11 14 14 15 15 17 21 23 25 27 29 25 25 22 21 20 19 18 17
13 16 15 14 15 15 14 13 13 11 11 12 12 12 13 12 12 11 11 13 16 14 16 17 16 15 16 16 15 17 20 22 23 24 25 31 30 28 26 24 22 21 20
21 22 21 19 18 17 16 15 14 14 12 13 12 11 12 13 12 12 12 13 15 15 16 20 20 20 18 19 20 19 20 22 24 25 25 30 31 33 31 28 27 25 24
22 20 21 21 19 18 19 17 18 18 15 14 13 13 13 16 16 15 14 13 14 16 18 18 20 23 23 23 22 23 23 24 26 27 28 28 31 32 36 34 32 29 28
22 22 23 21 19 18 18 19 19 19 17 16 14 15 16 18 19 19 17 14 14 16 16 18 20 21 25 27 28 27 27 27 29 30 31 31 32 33 33 40 38 35 33
21 21 21 21 21 21 19 17 18 20 20 19 17 18 19 19 22 22 21 20 19 19 23 24 25 27 28 31 32 34 32 32 34 35 36 34 35 36 37 37 42 42 39
21 22 23 25 24 21 19 18 19 24 23 21 21 22 23 21 22 22 21 21 22 24 26 29 30 31 31 32 32 34 37 38 38 39 40 40 39 39 40 42 42 45 45
24 26 27 28 28 25 22 21 23 26 25 24 25 26 27 25 24 23 21 21 24 26 28 30 32 35 34 33 35 37 38 41 40 40 43 45 45 43 43 44 46 47 49
24 26 28 29 27 28 25 25 26 29 29 27 27 29 28 29 27 25 23 24 26 27 31 34 32 33 35 39 42 46 45 42 40 44 44 47 48 48 46 45 47 50 52
23 27 29 29 33 32 30 28 28 28 30 28 28 31 30 31 30 27 27 23 27 29 30 33 35 36 39 43 48 50 53 51 47 42 45 45 48 51 51 51 49 51 53
33 35 33 31 32 31 32 33 31 31 30 29 28 30 31 32 31 25 21 23 27 30 33 36 36 36 40 47 52 53 55 52 45 42 44 50 50 51 54 54 54 53 54
38 36 27 40 45 33 38 36 32 35 34 32 31 31 32 32 28 23 30 32 32 34 37 37 38 38 44 49 52 56 54 52 47 46 42 44 48 48 51 54 54 57 57
35 42 44 40 35 42 38 37 35 34 35 34 34 33 34 36 35 38 34 30 35 38 39 41 37 42 49 53 55 54 51 51 50 51 48 47 49 50 50 52 56 57 60
41 41 34 38 19 26 28 32 38 33 35 37 37 33 33 36 38 35 34 38 46 48 50 42 39 45 51 53 54 51 50 48 51 50 48 46 48 51 53 50 52 57 60
43 35 31 27 24 28 28 34 37 35 36 37 38 34 35 35 38 38 36 37 42 42 41 38 45 49 53 54 53 50 45 49 46 45 45 44 45 46 49 51 51 54 58
47 34 30 36 33 29 31 35 37 38 39 37 37 41 39 40 41 42 45 45 42 51 42 44 43 53 53 50 50 48 47 48 40 41 40 37 38 41 44 49 57 55 53
45 43 40 39 40 36 33 31 33 30 32 33 35 37 38 42 43 38 42 38 41 46 47 44 44 51 50 48 48 47 47 43 39 40 38 35 39 37 46 54 61 55 46
51 48 43 42 44 39 33 31 27 28 28 36 40 34 32 28 32 36 36 40 44 45 44 47 50 51 50 50 49 46 42 38 39 38 36 37 42 49 56 57 59 55 51
46 48 46 45 44 38 30 30 27 26 23 24 24 29 33 35 40 44 40 42 48 49 48 50 53 52 53 49 48 41 39 38 40 40 39 40 44 49 48 47 52 54 53
52 50 46 41 39 33 34 31 29 30 27 24 32 36 40 44 43 46 44 49 53 52 53 54 54 53 48 46 45 42 42 40 39 36 37 42 44 48 30 28 40 43 42
Wind_Direction
68 63 57 55 52 52 53 48 45 46 45 45 41 35 32 26 18 13 3 349 301 284 274 279 269 258 256 259 250 246 246 242 236 236 245 256 241 230 225 221 207 209 190
60 58 55 52 47 43 39 33 28 25 21 19 17 16 19 18 17 18 16 3 343 319 297 281 274 262 256 253 238 235 238 243 240 234 235 241 238 230 240 238 226 222 223
39 35 28 19 16 21 21 13 3 3 2 357 352 351 351 354 7 3 4 3 358 349 323 301 290 286 282 271 281 227 228 234 240 239 237 234 238 234 240 247 242 227 226
37 25 16 19 11 10 7 355 346 343 343 342 337 335 334 335 338 341 341 346 351 350 342 331 308 292 288 284 279 270 234 230 231 237 238 236 236 239 238 242 241 237 227
15 10 358 357 346 342 344 337 323 323 324 322 321 321 322 326 327 322 330 333 337 338 333 322 319 306 291 284 283 279 270 245 235 234 234 236 234 236 237 235 233 237 235
338 342 339 336 329 325 325 313 303 302 301 308 313 313 313 315 315 317 320 322 322 328 330 324 315 312 305 293 283 281 281 273 248 238 239 235 233 233 235 234 233 229 235
324 322 324 320 319 315 309 297 286 285 295 305 310 308 311 309 312 315 310 311 311 318 312 309 297 294 299 301 299 286 280 278 279 254 236 242 240 234 234 235 235 235 232
307 302 298 300 302 302 296 290 286 282 289 299 298 306 312 313 312 310 307 305 304 306 305 303 297 284 284 286 286 291 293 289 282 274 263 240 244 242 236 234 234 236 235
305 299 295 294 299 301 294 287 289 287 287 288 290 304 312 316 313 309 309 300 298 294 298 298 301 296 282 279 282 280 281 283 284 281 268 265 246 242 242 237 234 234 236
301 298 291 291 292 294 293 288 292 284 279 280 287 298 311 317 316 312 311 299 296 294 301 297 296 297 293 281 275 279 278 278 279 277 273 265 261 249 240 241 238 235 234
295 294 292 288 284 284 287 282 282 279 276 276 283 291 301 308 312 311 308 301 303 304 304 304 299 295 292 290 283 275 273 274 273 271 270 268 262 255 254 239 241 238 238
292 292 289 288 287 284 283 278 275 269 269 274 278 283 288 299 308 310 309 315 314 314 310 308 308 302 291 287 292 285 274 271 270 271 270 264 263 259 252 247 240 241 240
286 290 292 289 287 283 278 272 270 270 270 272 274 276 279 282 293 300 304 309 315 315 310 303 305 308 306 295 287 279 276 274 272 270 268 268 261 256 253 249 244 241 241
293 295 295 293 291 288 285 281 279 276 274 276 279 278 275 280 287 294 292 298 307 306 306 308 307 306 306 299 291 285 277 274 271 264 266 268 265 257 252 249 247 243 241
284 283 289 286 286 285 283 280 278 277 274 279 285 285 276 277 280 282 285 283 292 298 304 301 300 300 301 297 295 294 294 288 277 272 264 261 265 262 255 251 247 245 241
290 296 287 284 286 283 282 280 278 278 274 279 286 285 281 279 284 284 286 279 286 298 299 297 297 297 297 299 294 294 294 291 288 279 270 263 260 261 260 254 250 245 243
305 300 300 286 276 287 280 280 281 280 281 279 278 281 280 281 286 282 280 290 298 302 296 299 293 294 297 295 295 293 291 289 288 281 272 268 263 257 257 257 253 248 243
310 307 304 298 279 284 285 285 283 283 280 280 281 278 278 277 274 269 288 299 302 301 296 296 294 296 298 295 297 294 291 292 289 286 276 272 270 263 256 254 253 251 246
339 324 333 313 273 284 277 281 287 288 281 280 282 276 273 274 273 279 287 286 296 298 302 297 295 292 296 297 293 290 289 288 288 287 279 269 267 265 262 258 253 250 248
333 340 344 351 329 315 298 287 282 289 283 280 282 276 274 273 274 275 282 293 293 300 302 295 292 294 296 297 293 291 288 291 291 287 281 273 269 267 262 260 257 250 246
328 331 330 332 310 310 295 287 280 284 290 283 279 280 276 271 273 271 279 288 297 298 295 291 292 293 295 295 298 293 294 292 291 281 275 272 271 271 267 262 259 254 247
324 324 320 320 323 304 309 298 287 283 285 281 277 270 277 275 277 272 276 280 288 296 289 288 294 290 294 298 298 297 297 292 286 287 285 279 273 269 268 266 264 257 250
319 315 315 317 315 304 304 294 293 288 290 280 289 280 278 283 273 289 284 276 290 292 294 292 293 293 296 298 298 297 295 288 284 287 284 277 283 278 274 275 263 260 254
304 309 305 311 308 297 294 288 291 280 281 283 287 283 277 286 277 284 284 288 285 293 291 288 290 294 296 298 296 296 293 282 283 287 291 284 284 284 277 270 263 254 253
303 307 305 302 302 294 287 288 281 274 291 288 272 289 287 287 280 277 294 292 292 294 293 291 295 294 295 294 296 297 291 287 283 287 294 286 293 292 285 268 261 259 250
305 301 306 303 293 300 293 286 280 274 271 283 291 290 289 290 286 287 291 291 292 292 292 294 294 292 291 295 296 297 294 289 288 293 292 292 301 300 280 266 263 257 248